Wind_Speed
8 9 11 13 16 18 20 19 19 19 18 16 15 13 12 11 9 8 7 5 4 3 2 1 1 1 2 2 2 3 3 3 3 3 3 3 3 4 5 5 6 6 6
7 8 9 11 14 17 20 19 18 18 17 16 14 13 12 10 9 8 7 6 5 3 2 2 2 2 3 3 3 3 3 3 4 4 4 4 4 4 5 6 6 7 7
8 7 7 9 12 15 17 18 19 17 17 16 14 13 11 10 9 8 7 7 6 4 3 2 2 2 2 2 2 3 3 4 4 4 4 4 5 6 6 6 7 7 8
10 7 5 4 7 11 14 16 17 16 15 14 14 13 11 11 10 9 8 7 6 5 4 3 3 2 1 1 1 2 3 4 4 5 5 6 6 7 7 8 8 8 9
9 7 4 1 5 8 11 14 16 15 15 15 14 13 12 12 10 9 9 8 7 6 5 4 3 2 1 1 2 2 3 4 5 6 7 8 8 8 8 8 9 10 10
8 6 5 2 2 5 9 12 14 14 14 14 13 13 13 11 10 10 9 8 8 7 6 5 5 4 4 3 4 4 5 6 7 8 9 9 10 10 10 10 11 11 11
6 5 4 3 1 3 7 10 13 13 13 13 13 13 12 11 11 11 10 9 9 8 8 7 7 6 6 6 7 7 8 8 9 10 10 11 12 12 13 13 13 13 14
6 5 3 3 2 4 7 9 11 12 12 12 12 12 12 11 11 11 11 10 10 9 9 9 8 9 9 9 10 10 11 12 12 13 14 14 15 16 16 16 16 16 16
6 5 4 2 2 3 5 8 9 10 10 10 10 11 11 11 12 12 12 11 11 11 11 11 11 11 11 12 13 14 14 15 16 17 17 18 19 19 20 20 20 20 20
6 5 4 2 1 2 3 6 7 8 9 10 10 11 12 12 13 13 13 13 13 13 13 13 13 14 14 15 16 17 18 19 19 20 21 21 22 22 22 23 23 23 23
7 5 4 3 1 1 2 3 5 7 8 10 11 12 12 13 14 14 14 14 15 15 15 15 16 16 17 18 19 20 21 22 22 23 23 24 24 25 25 25 25 26 26
9 7 6 6 5 5 5 6 7 8 10 11 12 13 14 15 15 15 16 16 17 17 18 18 19 19 20 21 22 23 24 25 25 25 26 26 27 27 28 28 28 29 29
10 9 9 9 8 7 8 8 9 10 11 12 13 14 15 15 16 17 18 19 20 20 21 21 22 22 23 24 25 26 26 27 27 28 28 28 29 30 30 30 31 32 32
13 12 11 11 11 10 11 11 12 13 13 14 15 16 16 17 18 19 20 21 22 23 23 24 24 25 26 27 28 29 29 30 30 30 30 31 32 32 33 33 34 35 35
14 14 14 13 12 13 14 15 15 15 16 17 18 19 19 20 21 22 22 23 24 25 25 26 27 28 28 29 30 31 32 32 32 33 33 33 34 35 36 37 37 38 38
16 16 16 16 16 16 16 16 17 19 20 20 21 21 22 23 23 24 25 25 26 26 27 29 30 30 31 32 33 34 34 35 35 35 36 36 36 37 38 39 40 41 41
19 20 19 19 19 19 19 20 20 21 23 24 24 25 25 26 25 26 27 28 29 30 30 31 32 32 33 35 35 36 37 37 38 37 38 38 39 40 40 41 42 43 44
22 22 22 22 22 22 22 23 23 25 26 27 27 28 28 29 30 30 31 32 33 33 33 34 34 34 35 36 36 38 39 40 40 40 41 42 42 43 44 45 45 45 45
22 23 23 23 24 24 26 26 27 28 29 30 32 32 32 33 34 34 35 35 35 36 36 36 37 38 38 39 39 40 41 42 43 44 44 45 46 46 47 48 49 49 49
23 23 25 26 26 27 28 28 30 31 32 34 35 35 36 36 36 36 37 38 38 39 39 40 41 41 42 42 42 42 43 44 45 46 46 48 49 50 51 51 52 52 52
24 25 25 27 28 29 30 31 32 34 35 36 36 37 37 37 37 38 38 38 39 40 41 42 42 43 43 43 44 45 46 47 48 49 50 51 52 53 54 55 56 56 57
24 25 27 28 29 30 32 33 35 36 37 37 37 38 39 39 39 39 39 39 41 41 42 42 43 44 45 46 47 48 49 50 51 53 54 55 57 58 59 60 61 61 62
26 27 28 29 30 31 33 34 35 37 37 37 38 38 39 40 39 39 39 40 40 41 43 44 45 46 47 48 49 51 52 54 56 57 59 60 62 63 64 65 66 67 67
28 28 29 30 31 32 33 33 34 35 36 37 37 36 37 37 37 38 38 40 42 43 45 46 47 48 50 52 54 56 58 59 61 62 64 65 66 68 69 70 70 70 71
29 30 31 31 31 32 33 34 34 35 36 36 36 37 37 38 38 39 40 42 43 44 46 48 50 52 54 56 58 60 62 64 66 67 68 70 71 71 72 72 72 72 71
31 31 32 33 33 33 33 34 35 36 37 37 37 38 39 40 41 42 43 44 46 47 49 51 53 56 58 60 62 64 66 68 70 72 72 73 73 72 71 70 69 68 67
Wind_Direction
295 268 250 240 231 227 227 227 229 228 226 228 232 230 229 230 232 234 231 231 230 226 209 163 110 85 73 61 51 48 40 28 15 5 355 342 333 324 321 318 314 310 303
317 288 265 249 233 225 225 230 227 226 225 223 224 223 223 223 224 221 220 217 210 198 183 160 129 99 82 68 58 49 39 32 26 19 14 2 352 346 335 328 323 318 312
340 312 280 252 235 225 223 225 220 221 219 219 219 217 214 217 214 212 209 208 199 190 184 174 157 126 93 67 51 41 37 32 25 18 12 3 355 349 343 337 328 322 317
351 342 319 260 228 215 216 215 209 209 206 207 210 208 208 206 204 201 201 201 196 192 191 186 178 164 129 55 26 17 12 8 3 359 354 349 346 342 338 335 329 323 317
360 5 360 307 219 214 207 206 201 199 199 204 204 203 199 198 200 200 200 199 197 198 202 208 210 217 241 287 319 335 338 339 337 335 334 332 333 333 331 329 327 324 319
6 16 18 13 188 193 195 198 194 193 198 200 200 198 196 198 202 202 204 204 206 210 217 226 231 240 253 272 290 301 308 314 316 319 320 321 322 323 322 319 319 316 314
2 16 30 41 129 179 185 184 187 190 192 195 194 194 197 201 205 208 212 213 217 222 230 237 242 250 260 272 284 291 297 302 304 306 308 309 310 310 310 311 310 309 309
354 8 22 40 100 142 163 178 185 190 192 193 197 199 201 205 211 216 219 222 226 231 238 243 251 258 266 273 280 286 290 294 296 297 299 299 300 301 303 304 303 303 303
353 359 3 23 68 136 173 183 186 189 193 196 200 204 210 215 220 223 226 230 235 239 244 249 256 263 269 274 280 284 287 290 291 293 294 295 296 296 297 297 298 297 297
333 347 2 12 50 115 156 184 191 195 201 206 211 218 224 227 230 232 234 238 244 247 251 256 261 267 272 277 281 284 287 288 289 290 291 292 293 293 293 293 293 294 294
309 309 313 319 299 224 200 203 212 218 222 224 226 229 234 236 238 240 243 247 251 255 259 264 268 272 276 279 282 285 286 287 289 290 291 291 291 291 291 291 291 291 291
302 295 291 289 279 263 246 238 236 237 238 239 239 241 242 244 246 249 252 254 257 261 264 268 272 276 279 281 282 284 286 287 288 289 290 290 290 289 289 289 289 289 289
293 289 282 279 277 273 265 258 253 251 250 249 249 249 250 252 254 256 257 259 261 264 267 270 273 275 278 280 281 283 284 285 286 287 288 288 288 288 288 287 288 288 288
286 285 280 277 275 273 269 264 261 261 260 260 260 259 260 260 260 261 261 262 264 266 269 271 274 276 278 280 281 282 283 284 284 285 286 287 287 286 286 286 286 287 287
278 280 281 277 275 274 272 269 267 267 268 268 266 264 264 264 265 265 266 267 268 270 272 274 276 278 279 280 281 282 283 284 285 285 285 285 285 285 285 285 285 285 286
278 278 279 278 277 276 276 273 271 271 272 271 271 270 267 266 268 268 268 270 272 273 275 277 279 279 280 280 281 282 283 284 284 284 284 284 285 286 286 285 285 285 285
275 274 274 276 275 276 276 279 278 275 276 277 277 276 274 271 270 270 272 273 275 276 277 278 279 280 281 281 282 283 284 284 284 284 284 285 285 285 284 283 283 284 285
276 277 277 275 273 274 275 275 277 279 278 278 280 280 280 279 276 275 276 276 276 277 278 280 280 280 281 282 285 285 285 285 286 285 285 285 285 285 284 284 283 283 283
280 280 279 278 278 278 277 276 279 280 278 278 278 278 278 278 277 278 278 278 278 279 280 281 281 282 282 283 284 285 286 287 287 286 285 286 285 285 284 284 284 284 284
279 280 281 281 280 281 279 279 282 282 282 279 278 278 279 279 276 277 277 279 281 281 282 281 281 282 283 285 286 287 287 287 287 287 287 286 286 286 285 285 284 284 283
279 281 283 283 283 283 282 283 284 285 284 281 279 279 278 278 278 279 281 283 284 284 284 285 285 285 287 288 288 289 288 289 289 288 288 287 287 287 287 286 285 284 283
282 282 284 284 284 284 284 284 284 285 284 282 280 281 280 279 278 279 281 283 285 286 288 288 289 289 289 289 289 289 289 289 289 289 289 289 288 288 287 286 285 284 283
284 284 284 284 285 285 285 284 284 284 284 283 283 282 281 278 278 281 283 286 289 289 289 289 289 289 289 290 290 290 290 290 289 289 289 289 288 287 287 286 285 284 283
285 285 284 285 286 287 287 286 286 285 284 284 284 284 284 283 283 285 286 288 289 290 289 288 289 290 290 291 291 291 291 291 290 290 289 289 288 287 286 285 284 284 283
285 284 284 286 286 286 287 286 287 287 288 287 285 285 286 287 286 286 287 288 289 290 291 291 292 292 292 292 292 292 291 291 291 290 289 289 288 287 286 285 284 283 282
286 286 286 286 286 285 286 287 287 287 287 286 286 286 287 287 288 288 289 289 290 291 291 292 292 292 292 292 292 292 292 292 292 292 291 290 289 288 287 286 284 283 282
Height
5835 5835 5835 5837 5838 5840 5844 5848 5851 5855 5859 5863 5866 5868 5871 5873 5875 5876 5877 5878 5879 5879 5880 5880 5881 5881 5881 5881 5881 5882 5882 5882 5882 5882 5882 5882 5882 5882 5882 5883 5883 5883 5883
5835 5834 5834 5835 5836 5839 5842 5845 5849 5853 5857 5861 5864 5867 5869 5871 5873 5875 5876 5877 5878 5879 5879 5880 5881 5881 5881 5881 5882 5882 5882 5882 5882 5882 5882 5882 5883 5882 5882 5882 5882 5882 5882
5835 5833 5833 5833 5834 5836 5839 5843 5847 5851 5855 5858 5862 5865 5867 5870 5872 5873 5875 5877 5877 5878 5879 5880 5880 5881 5881 5882 5882 5882 5882 5882 5882 5882 5882 5882 5882 5881 5881 5881 5881 5880 5880
5836 5834 5832 5832 5833 5835 5838 5842 5845 5849 5853 5856 5860 5863 5865 5868 5870 5872 5874 5876 5877 5878 5879 5879 5880 5881 5881 5881 5882 5882 5882 5882 5882 5882 5881 5881 5881 5881 5880 5880 5879 5879 5879
5837 5835 5834 5833 5834 5835 5838 5841 5844 5848 5851 5855 5858 5861 5864 5866 5869 5871 5873 5874 5876 5877 5878 5879 5880 5880 5881 5881 5881 5881 5881 5881 5881 5881 5881 5880 5880 5879 5879 5879 5878 5878 5877
5839 5837 5835 5835 5835 5836 5838 5841 5844 5848 5851 5854 5857 5860 5863 5865 5867 5870 5872 5873 5875 5876 5877 5878 5879 5879 5880 5880 5880 5880 5880 5880 5880 5880 5879 5879 5878 5878 5877 5877 5876 5876 5875
5840 5839 5838 5837 5836 5837 5839 5842 5845 5848 5851 5854 5856 5859 5862 5864 5866 5868 5870 5872 5873 5874 5876 5876 5877 5878 5878 5879 5879 5879 5879 5879 5878 5878 5878 5877 5877 5876 5875 5875 5874 5873 5873
5842 5840 5839 5839 5838 5839 5840 5842 5845 5848 5851 5853 5856 5859 5861 5863 5865 5867 5869 5870 5872 5873 5874 5875 5875 5876 5876 5877 5877 5877 5877 5876 5876 5876 5875 5875 5874 5873 5872 5872 5871 5870 5870
5843 5842 5841 5840 5840 5840 5842 5843 5846 5848 5851 5853 5855 5858 5860 5862 5864 5865 5866 5868 5869 5870 5871 5872 5873 5873 5874 5874 5874 5874 5874 5873 5873 5872 5872 5871 5871 5870 5869 5868 5867 5866 5865
5843 5843 5842 5841 5841 5842 5843 5844 5846 5848 5850 5852 5854 5856 5858 5860 5862 5863 5864 5865 5867 5868 5868 5869 5870 5870 5870 5871 5871 5870 5870 5870 5869 5868 5868 5867 5866 5865 5864 5863 5862 5861 5860
5843 5843 5842 5842 5843 5843 5844 5845 5846 5848 5850 5852 5853 5855 5857 5858 5859 5860 5861 5862 5864 5864 5865 5866 5866 5866 5866 5866 5866 5865 5865 5865 5864 5863 5862 5861 5861 5860 5859 5858 5857 5856 5855
5842 5842 5842 5842 5843 5843 5844 5844 5846 5847 5848 5850 5851 5852 5854 5855 5856 5857 5858 5859 5860 5860 5861 5861 5862 5862 5861 5861 5861 5860 5859 5859 5858 5857 5856 5855 5854 5853 5852 5851 5850 5849 5848
5841 5841 5841 5841 5841 5842 5843 5843 5844 5845 5846 5847 5848 5849 5850 5851 5852 5853 5853 5854 5855 5855 5855 5856 5856 5856 5855 5855 5854 5853 5853 5852 5852 5851 5850 5849 5847 5846 5845 5844 5842 5841 5840
5840 5839 5839 5839 5839 5840 5841 5841 5842 5842 5843 5844 5844 5845 5846 5847 5847 5848 5848 5849 5849 5849 5849 5849 5849 5849 5849 5848 5847 5846 5846 5845 5844 5843 5842 5841 5840 5839 5837 5836 5834 5833 5832
5837 5837 5837 5837 5837 5837 5838 5838 5838 5839 5839 5840 5840 5840 5841 5841 5842 5842 5842 5842 5842 5842 5842 5842 5842 5842 5841 5840 5839 5838 5838 5837 5836 5835 5834 5832 5831 5830 5828 5827 5825 5824 5822
5834 5834 5834 5834 5834 5834 5834 5834 5834 5835 5835 5835 5835 5835 5835 5835 5835 5835 5835 5835 5835 5835 5835 5835 5834 5833 5832 5831 5830 5829 5828 5828 5827 5826 5825 5823 5822 5820 5818 5816 5815 5813 5812
5829 5830 5829 5831 5831 5830 5830 5830 5830 5830 5830 5830 5829 5829 5829 5828 5828 5828 5828 5828 5827 5827 5826 5826 5825 5824 5823 5821 5820 5819 5818 5817 5817 5816 5814 5813 5811 5809 5808 5806 5804 5802 5800
5824 5825 5825 5825 5825 5825 5825 5824 5824 5824 5824 5824 5823 5823 5823 5822 5821 5821 5821 5820 5819 5818 5817 5816 5815 5814 5813 5811 5810 5809 5807 5806 5805 5804 5803 5801 5800 5797 5795 5793 5792 5791 5789
5819 5820 5820 5820 5819 5819 5819 5818 5817 5818 5817 5816 5816 5815 5815 5813 5813 5813 5812 5811 5810 5809 5807 5806 5805 5803 5802 5800 5799 5797 5796 5794 5793 5792 5790 5788 5786 5784 5782 5780 5778 5776 5775
5814 5814 5814 5814 5813 5813 5812 5811 5811 5810 5809 5809 5807 5805 5805 5803 5803 5803 5802 5801 5800 5798 5797 5795 5793 5792 5790 5789 5787 5786 5783 5782 5780 5778 5776 5773 5771 5769 5767 5765 5763 5761 5759
5808 5808 5808 5807 5806 5806 5805 5804 5804 5803 5801 5800 5798 5797 5795 5794 5794 5792 5791 5790 5789 5787 5785 5783 5781 5779 5778 5776 5775 5772 5770 5768 5766 5764 5761 5758 5755 5753 5750 5748 5746 5744 5741
5802 5802 5802 5801 5800 5799 5798 5796 5795 5794 5792 5790 5789 5788 5786 5784 5784 5783 5781 5779 5778 5776 5774 5772 5770 5767 5765 5763 5761 5759 5756 5753 5750 5748 5745 5742 5739 5736 5733 5730 5727 5724 5721
5795 5795 5794 5793 5792 5791 5790 5788 5786 5785 5783 5781 5780 5778 5776 5774 5773 5771 5770 5768 5766 5764 5762 5760 5757 5754 5751 5749 5747 5744 5741 5737 5734 5731 5728 5724 5721 5717 5714 5711 5707 5703 5700
5788 5787 5786 5785 5784 5783 5781 5779 5778 5776 5774 5772 5770 5768 5766 5764 5763 5761 5759 5757 5755 5752 5749 5747 5744 5741 5737 5734 5731 5727 5723 5720 5716 5713 5709 5705 5701 5696 5692 5689 5685 5681 5677
5780 5779 5778 5776 5775 5774 5772 5771 5769 5767 5764 5762 5760 5758 5756 5754 5752 5750 5748 5746 5743 5740 5737 5733 5730 5726 5722 5718 5714 5709 5705 5700 5696 5691 5688 5683 5678 5674 5669 5664 5660 5656 5653
5772 5771 5770 5768 5767 5765 5763 5761 5759 5757 5755 5752 5750 5748 5745 5743 5741 5738 5736 5732 5730 5726 5723 5719 5715 5710 5706 5701 5696 5690 5685 5679 5673 5668 5664 5659 5653 5648 5644 5639 5635 5631 5628